1534417200.69,28861,21.5,74436.8,13.45,6.07,6.17,0,*4A
1534417201.94,28862,21.5,74438.0,13.43,5.73,5.81,0,*43
1534417203.17,28863,21.5,74438.8,13.43,6.03,6.13,0,*4E
1534417204.36,28864,21.5,74432.8,13.37,6.21,6.21,0,*4B
1534417205.58,28865,21.5,74436.3,13.37,5.77,5.77,0,*4A
1534417206.76,28866,21.5,74438.3,13.37,6.21,6.21,0,*49
1534417208.0,28867,21.5,74434.0,13.33,6.39,6.51,0,*42
1534417209.19,28868,21.5,74438.5,13.33,6.33,6.33,0,*43
1534417210.41,28869,21.5,74436.3,13.33,6.53,6.51,0,*40
1534417211.6,28870,21.5,74434.0,13.33,6.03,5.95,0,*46
1534417212.84,28871,21.5,74436.5,13.29,6.13,6.13,0,*40
1534417214.09,28872,21.5,74436.0,13.31,5.85,5.81,0,*4E
1534417215.3,28873,21.5,74436.0,13.27,6.21,6.25,0,*48
1534417216.5,28874,21.5,74436.0,13.27,6.79,6.79,0,*4B
1534417217.75,28875,21.5,74436.3,13.27,6.69,6.65,0,*46
1534417218.96,28876,21.5,74436.8,13.25,6.39,6.33,0,*41
1534417220.19,28877,21.5,74434.8,13.27,6.17,6.07,0,*49
1534417221.42,28878,21.5,74432.8,13.23,6.51,6.39,0,*4D
1534417222.61,28879,21.5,74432.8,13.23,6.29,6.07,0,*4E
1534417223.85,28880,21.5,74434.3,13.21,6.13,5.99,0,*47
1534417225.05,28881,21.5,74432.8,13.23,5.85,5.63,0,*4D
1534417226.24,28882,21.5,74436.3,13.19,6.25,6.11,0,*48
1534417227.47,28883,21.5,74434.3,13.17,6.75,6.65,0,*41
1534417228.69,28884,21.44,74432.0,13.19,6.73,6.61,0,*4A
1534417229.89,28885,21.5,74432.0,13.19,6.87,6.79,0,*49
1534417231.09,28886,21.5,74434.5,13.19,6.79,6.69,0,*4A
1534417232.32,28887,21.5,74432.8,13.19,7.27,7.15,0,*4B
1534417233.53,28888,21.5,74432.0,13.19,6.69,6.57,0,*48
1534417234.76,28889,21.5,74434.8,13.19,6.69,6.47,0,*48
1534417235.99,28890,21.5,74434.3,13.19,6.69,6.47,0,*40
1534417237.22,28891,21.5,74430.5,13.19,6.57,6.51,0,*4B
1534417238.42,28892,21.5,74432.0,13.19,7.19,7.09,0,*4F
1534417239.68,28893,21.5,74432.3,13.17,7.27,7.15,0,*40
1534417240.85,28894,21.5,74432.5,13.19,6.93,6.83,0,*49
1534417242.06,28895,21.5,74432.0,13.19,6.97,6.73,0,*43
1534417243.29,28896,21.5,74432.5,13.17,6.75,6.47,0,*45
1534417244.49,28897,21.5,74434.5,13.19,6.87,6.79,0,*4A
1534417245.72,28898,21.5,74432.5,13.17,6.83,6.65,0,*42
1534417246.95,28899,21.5,74432.0,13.17,5.99,5.85,0,*46
1534417248.18,28900,21.5,74434.5,13.17,6.43,6.25,0,*4A
1534417249.39,28901,21.5,74436.0,13.13,6.33,6.07,0,*48
1534417250.59,28902,21.5,74434.5,13.11,6.79,6.61,0,*47
1534417251.79,28903,21.5,74434.5,13.11,6.79,6.73,0,*45
1534417253.0,28904,21.5,74434.8,13.13,6.97,6.79,0,*4A
1534417254.2,28905,21.44,74428.8,13.11,7.01,6.87,0,*46
1534417255.46,28906,21.5,74432.8,13.13,6.73,6.53,0,*4A
1534417256.7,28907,21.5,74428.5,13.09,6.35,6.25,0,*43
1534417257.94,28908,21.5,74434.3,13.09,6.39,6.29,0,*4C
1534417259.16,28909,21.5,74432.8,13.07,6.53,6.53,0,*42
1534417260.37,28910,21.5,74432.8,13.07,5.95,5.77,0,*46
1534417261.57,28911,21.5,74434.3,13.07,6.21,6.03,0,*4B
1534417262.78,28912,21.5,74432.5,13.03,6.43,6.21,0,*48
1534417264.02,28913,21.5,74438.5,13.05,5.85,5.63,0,*43
1534417265.23,28914,21.5,74434.8,13.03,6.39,6.21,0,*43
1534417266.46,28915,21.5,74434.3,13.03,6.69,6.51,0,*40
1534417267.73,28916,21.5,74434.8,13.01,6.61,6.47,0,*4E
1534417268.97,28917,21.5,74432.3,13.01,6.51,6.25,0,*48
1534417270.19,28918,21.5,74434.3,12.99,6.35,6.07,0,*45
1534417271.39,28919,21.5,74434.5,12.99,6.25,6.03,0,*41
1534417272.6,28920,21.5,74434.3,12.99,5.81,5.49,0,*4B
1534417273.81,28921,21.5,74432.8,12.95,6.11,5.85,0,*4C
1534417275.02,28922,21.5,74434.8,12.95,6.43,6.21,0,*45
1534417276.22,28923,21.5,74432.3,12.95,5.55,5.33,0,*40
1534417277.48,28924,21.5,74434.0,12.91,5.73,5.51,0,*43
1534417278.69,28925,21.44,74432.0,12.89,6.39,6.25,0,*46
1534417279.93,28926,21.5,74438.3,12.89,6.61,6.47,0,*4C
1534417281.19,28927,21.5,74432.0,12.91,6.65,6.51,0,*47
1534417282.4,28928,21.5,74432.8,12.89,6.17,5.95,0,*4F
1534417283.63,28929,21.44,74432.8,12.87,6.17,6.03,0,*4C
1534417284.9,28930,21.5,74434.5,12.87,6.51,6.35,0,*43
1534417286.08,28931,21.5,74432.3,12.85,6.21,6.11,0,*41
1534417287.29,28932,21.5,74432.3,12.83,5.71,5.59,0,*4D
1534417288.47,28933,21.5,74432.3,12.81,6.07,5.95,0,*4C
1534417289.71,28934,21.5,74432.5,12.83,6.39,6.33,0,*4B
1534417290.91,28935,21.5,74436.3,12.81,6.39,6.29,0,*43
1534417292.17,28936,21.5,74432.5,12.79,6.13,5.93,0,*4D
1534417293.4,28937,21.5,74432.0,12.79,6.35,6.29,0,*4A
1534417294.64,28938,21.5,74434.3,12.77,6.57,6.51,0,*40
1534417295.87,28939,21.5,74432.8,12.77,6.39,6.39,0,*47
1534417297.11,28940,21.5,74434.3,12.77,6.47,6.51,0,*4E
1534417298.33,28941,21.5,74434.5,12.77,6.73,6.73,0,*48
1534417299.56,28942,21.5,74436.0,12.73,6.53,6.57,0,*4B
1534417300.82,28943,21.5,74436.0,12.75,6.51,6.43,0,*4B
1534417302.07,28944,21.5,74432.8,12.73,6.35,6.35,0,*49
1534417303.31,28945,21.5,74434.8,12.73,6.39,6.35,0,*44
1534417304.55,28946,21.5,74434.8,12.73,6.35,6.43,0,*4A
1534417305.79,28947,21.5,74432.0,12.73,6.43,6.43,0,*4A
1534417307.02,28948,21.5,74432.8,12.69,6.43,6.53,0,*4F
1534417308.23,28949,21.5,74436.3,12.69,6.33,6.39,0,*45
1534417309.45,28950,21.44,74428.0,12.67,6.29,6.33,0,*42
1534417310.7,28951,21.5,74432.0,12.67,6.33,6.39,0,*42
1534417311.91,28952,21.5,74434.3,12.67,6.29,6.29,0,*4B
1534417313.13,28953,21.5,74436.0,12.65,6.29,6.35,0,*45
1534417314.4,28954,21.5,74432.8,12.63,6.43,6.43,0,*49
1534417315.65,28955,21.5,74434.3,12.63,6.53,6.65,0,*4D
1534417316.87,28956,21.5,74436.5,12.63,6.25,6.25,0,*4B
1534417318.09,28957,21.5,74438.8,12.63,6.33,6.33,0,*4A
1534417319.27,28958,21.5,74436.3,12.61,5.99,6.11,0,*44
1534417320.46,28959,21.5,74432.8,12.61,5.99,6.07,0,*42
1534417321.65,28960,21.5,74438.3,12.59,6.21,6.33,0,*44
1534417322.85,28961,21.5,74436.8,12.59,6.07,6.13,0,*43
1534417324.03,28962,21.5,74438.0,12.59,5.95,5.95,0,*45
1534417325.27,28963,21.5,74438.0,12.57,6.17,6.25,0,*4B
1534417326.51,28964,21.44,74434.5,12.55,6.35,6.35,0,*4F
1534417327.69,28965,21.5,74438.5,12.55,6.29,6.25,0,*42
1534417328.93,28966,21.5,74434.0,12.55,6.35,6.35,0,*4D
1534417330.12,28967,21.5,74432.8,12.55,6.29,6.25,0,*40
1534417331.36,28968,21.5,74436.8,12.53,6.33,6.35,0,*43
1534417332.6,28969,21.5,74438.0,12.51,6.35,6.47,0,*43
1534417333.79,28970,21.5,74438.0,12.51,6.11,6.11,0,*4E
1534417334.97,28971,21.44,74434.8,12.51,6.11,6.11,0,*4F
1534417336.18,28972,21.44,74432.3,12.51,6.13,6.21,0,*4D
1534417337.45,28973,21.5,74434.3,12.49,6.43,6.51,0,*47
1534417338.71,28974,21.5,74436.8,12.45,6.13,6.17,0,*4B
1534417339.95,28975,21.5,74436.8,12.45,5.99,5.93,0,*44
1534417341.16,28976,21.5,74434.5,12.45,5.67,5.59,0,*40
1534417342.38,28977,21.5,74438.8,12.45,6.07,6.03,0,*48
1534417343.62,28978,21.44,74432.3,12.43,6.51,6.51,0,*45
1534417344.88,28979,21.5,74436.5,12.41,6.57,6.65,0,*47
1534417346.09,28980,21.5,74436.0,12.41,6.33,6.25,0,*47
1534417347.31,28981,21.5,74436.5,12.41,6.25,6.25,0,*41
1534417348.57,28982,21.5,74432.3,12.41,5.89,5.73,0,*47
1534417349.78,28983,21.5,74436.3,12.37,6.29,6.21,0,*4A
1534417351.02,28984,21.5,74438.3,12.41,5.99,5.89,0,*45
1534417352.25,28985,21.5,74436.3,12.37,5.99,5.85,0,*49
1534417353.44,28986,21.5,74436.3,12.39,6.07,5.95,0,*41
1534417354.65,28987,21.5,74434.8,12.35,6.03,5.89,0,*45
1534417355.88,28988,21.5,74434.5,12.33,5.77,5.63,0,*48
1534417357.09,28989,21.44,74432.3,12.33,5.41,5.29,0,*42
1534417358.29,28990,21.44,74434.3,12.29,5.37,5.15,0,*4F
1534417359.53,28991,21.5,74434.0,12.29,5.99,5.85,0,*43
1534417360.79,28992,21.5,74436.5,12.29,5.73,5.51,0,*4D
1534417362.02,28993,21.5,74438.0,12.29,6.11,5.85,0,*42
1534417363.22,28994,21.5,74438.0,12.27,6.29,5.99,0,*4D
1534417364.43,28995,21.5,74436.0,12.23,6.35,6.07,0,*41
1534417365.63,28996,21.5,74436.8,12.23,6.39,6.25,0,*4E
1534417366.84,28997,21.5,74436.8,12.23,5.93,5.71,0,*4E
1534417368.05,28998,21.5,74436.0,12.27,6.07,5.81,0,*44
1534417369.27,28999,21.44,74432.5,12.23,5.93,5.67,0,*47
1534417370.5,29000,21.5,74436.0,12.21,5.93,5.63,0,*49
1534417371.69,29001,21.5,74436.5,12.19,5.63,5.29,0,*42
1534417372.94,29002,21.44,74432.8,12.21,5.81,5.55,0,*4D
1534417374.15,29003,21.44,74434.3,12.21,5.63,5.33,0,*40
1534417375.36,29004,21.5,74434.8,12.17,5.37,5.19,0,*4B
1534417376.55,29005,21.5,74438.3,12.15,5.37,5.11,0,*40
1534417377.73,29006,21.5,74436.5,12.15,5.33,5.15,0,*43
1534417378.93,29007,21.5,74436.5,12.13,5.63,5.45,0,*44
1534417380.14,29008,21.44,74434.5,12.13,5.63,5.45,0,*4B
1534417381.34,29009,21.5,74436.3,12.11,5.77,5.71,0,*4A
1534417382.55,29010,21.44,74432.5,12.11,5.67,5.55,0,*45
1534417383.79,29011,21.5,74438.5,12.13,5.67,5.51,0,*42
1534417385.0,29012,21.5,74436.3,12.09,6.33,6.21,0,*4C
1534417386.23,29013,21.5,74436.0,12.07,6.43,6.39,0,*4D
1534417387.45,29014,21.5,74438.5,12.11,5.77,5.77,0,*40
1534417388.67,29015,21.5,74434.0,12.09,5.51,5.37,0,*48
1534417389.86,29016,21.5,74434.5,12.07,5.19,5.07,0,*4A
1534417391.07,29017,21.5,74434.0,12.07,5.41,5.27,0,*44
1534417392.27,29018,21.44,74432.0,12.07,5.05,4.89,0,*4E
1534417393.54,29019,21.5,74438.0,12.01,4.97,4.71,0,*44
1534417394.75,29020,21.5,74438.0,12.01,5.29,5.11,0,*4D
1534417395.97,29021,21.44,74434.5,11.99,5.19,4.97,0,*42
1534417397.17,29022,21.44,74432.3,11.99,5.41,5.27,0,*46
1534417398.41,29023,21.5,74432.8,11.97,5.89,5.67,0,*49
1534417399.65,29024,21.5,74438.3,11.97,5.99,5.85,0,*43
1534417400.84,29025,21.5,74436.8,11.99,6.25,6.03,0,*45
1534417402.07,29026,21.5,74436.3,11.97,6.17,6.07,0,*4D
1534417403.29,29027,21.5,74438.8,11.99,6.47,6.33,0,*40
1534417404.54,29028,21.44,74434.3,11.97,6.65,6.57,0,*43
1534417405.8,29029,21.44,74436.3,11.97,6.57,6.65,0,*42
1534417407.04,29030,21.5,74438.0,11.97,6.53,6.57,0,*4F
1534417408.27,29031,21.44,74432.3,11.97,6.17,6.07,0,*4B
1534417409.53,29032,21.5,74436.8,11.97,6.65,6.53,0,*4C
1534417410.79,29033,21.5,74438.5,11.97,6.47,6.43,0,*4C
1534417412.03,29034,21.5,74432.8,11.97,6.33,6.17,0,*49
1534417413.24,29035,21.5,74436.0,11.99,5.89,5.67,0,*40
1534417414.49,29036,21.5,74436.8,11.95,6.03,5.93,0,*45
1534417415.74,29037,21.44,74432.3,11.95,6.17,6.13,0,*4A
1534417416.98,29038,21.5,74436.0,11.95,6.03,5.93,0,*4B
1534417418.19,29039,21.44,74432.3,11.93,6.13,6.03,0,*47
1534417419.4,29040,21.44,74434.5,11.93,6.33,6.17,0,*4E
1534417420.61,29041,21.44,74432.5,11.93,6.03,5.85,0,*44
1534417421.82,29042,21.44,74434.3,11.93,5.81,5.63,0,*46
1534417423.02,29043,21.5,74434.0,11.91,5.29,5.19,0,*4A
1534417424.22,29044,21.44,74432.3,11.89,5.37,5.27,0,*46
1534417425.44,29045,21.5,74436.3,11.89,5.85,5.73,0,*4F
1534417426.65,29046,21.5,74438.8,11.87,6.07,5.95,0,*43
1534417427.9,29047,21.5,74438.3,11.87,5.77,5.55,0,*4A
1534417429.11,29048,21.5,74438.0,11.87,5.29,5.19,0,*46
1534417430.3,29049,21.5,74436.0,11.85,5.71,5.59,0,*4C
1534417431.55,29050,21.5,74438.8,11.87,5.85,5.73,0,*45
1534417432.78,29051,21.5,74436.5,11.85,5.81,5.73,0,*42
1534417433.96,29052,21.5,74442.3,11.85,5.59,5.49,0,*4D
1534417435.16,29053,21.44,74438.8,11.81,5.55,5.67,0,*48
1534417436.34,29054,21.44,74438.8,11.81,5.45,5.49,0,*42
1534417437.52,29055,21.5,74442.8,11.81,5.23,5.33,0,*4E
1534417438.78,29056,21.44,74436.8,11.79,5.81,5.89,0,*43
1534417440.03,29057,21.5,74440.8,11.79,5.93,6.03,0,*40
1534417441.28,29058,21.5,74442.3,11.75,5.77,5.85,0,*44
1534417442.48,29059,21.5,74438.0,11.75,5.29,5.29,0,*48
1534417443.66,29060,21.5,74438.0,11.73,4.89,4.89,0,*44
1534417444.84,29061,21.5,74434.5,11.73,4.41,4.23,0,*41
1534417446.11,29062,21.5,74440.3,11.71,4.67,4.67,0,*44
1534417447.34,29063,21.5,74438.3,11.71,5.27,5.33,0,*40
1534417448.55,29064,21.44,74436.5,11.69,5.59,5.55,0,*47
1534417449.73,29065,21.5,74442.3,11.69,5.37,5.37,0,*4A
1534417450.96,29066,21.5,74440.0,11.69,5.89,5.93,0,*42
1534417452.17,29067,21.5,74442.0,11.69,6.07,6.13,0,*4D
1534417453.38,29068,21.5,74436.5,11.69,6.07,6.17,0,*46
1534417454.63,29069,21.44,74436.5,11.67,5.77,5.85,0,*45
1534417455.88,29070,21.5,74436.8,11.67,5.55,5.55,0,*40
1534417457.11,29071,21.44,74438.3,11.67,5.45,5.55,0,*40
1534417458.32,29072,21.5,74438.3,11.67,5.23,5.29,0,*48
1534417459.57,29073,21.5,74442.5,11.67,5.73,5.73,0,*43
1534417460.8,29074,21.5,74438.0,11.65,5.85,5.93,0,*41
1534417462.04,29075,21.5,74438.8,11.67,6.13,6.25,0,*40
1534417463.23,29076,21.44,74438.5,11.65,6.29,6.33,0,*4F
1534417464.49,29077,21.44,74438.0,11.67,6.35,6.53,0,*47
1534417465.75,29078,21.44,74436.3,11.67,6.43,6.57,0,*4D
1534417467.0,29079,21.44,74436.8,11.67,6.47,6.57,0,*48
1534417468.24,29080,21.44,74436.5,11.67,6.21,6.43,0,*4B
1534417469.49,29081,21.44,74438.3,11.67,6.25,6.35,0,*4F
1534417470.74,29082,21.5,74438.3,11.67,5.73,5.93,0,*43
1534417471.92,29083,21.5,74436.8,11.65,5.95,6.29,0,*4A
1534417473.14,29084,21.5,74438.8,11.65,6.21,6.43,0,*4D
1534417474.38,29085,21.5,74436.3,11.67,6.25,6.43,0,*4A
1534417475.59,29086,21.5,74438.3,11.67,5.99,6.21,0,*49
1534417476.83,29087,21.5,74436.3,11.67,5.89,6.11,0,*4A
1534417478.04,29088,21.5,74438.5,11.67,6.11,6.33,0,*47
1534417479.25,29089,21.44,74438.3,11.67,6.11,6.33,0,*46
1534417480.51,29090,21.44,74438.5,11.67,5.73,5.85,0,*47
1534417481.75,29091,21.44,74438.3,11.67,5.89,6.11,0,*4D
1534417482.98,29092,21.5,74442.0,11.65,5.81,5.85,0,*4A
1534417484.17,29093,21.5,74436.0,11.65,5.95,6.11,0,*40
1534417485.38,29094,21.44,74438.0,11.67,5.95,6.11,0,*45
1534417486.61,29095,21.5,74436.0,11.67,6.13,6.25,0,*4E
1534417487.82,29096,21.44,74434.3,11.67,6.11,6.25,0,*4F
1534417489.06,29097,21.44,74432.3,11.67,6.13,6.25,0,*4C
1534417490.3,29098,21.5,74434.0,11.67,6.33,6.35,0,*40
1534417491.54,29099,21.44,74436.3,11.67,6.13,6.25,0,*42
1534417492.81,29100,21.5,74436.3,11.67,6.35,6.43,0,*47
1534417494.04,29101,21.5,74436.5,11.69,6.47,6.57,0,*48
1534417495.24,29102,21.5,74438.8,11.73,6.69,6.79,0,*40
1534417496.5,29103,21.44,74432.3,11.71,6.69,6.73,0,*49
1534417497.71,29104,21.44,74436.3,11.71,6.75,6.75,0,*45
1534417498.98,29105,21.44,74434.8,11.71,6.35,6.35,0,*44
1534417500.21,29106,21.5,74438.3,11.71,6.07,6.13,0,*42
1534417501.45,29107,21.5,74434.8,11.69,5.93,5.93,0,*4F
1534417502.69,29108,21.44,74436.3,11.69,6.39,6.47,0,*49
1534417503.95,29109,21.44,74434.0,11.71,6.39,6.39,0,*48
1534417505.18,29110,21.5,74434.8,11.69,6.69,6.73,0,*42
1534417506.36,29111,21.5,74434.0,11.69,6.97,7.05,0,*42
1534417507.58,29112,21.44,74432.8,11.69,6.47,6.25,0,*4F
1534417508.85,29113,21.5,74436.3,11.71,6.35,6.17,0,*43
1534417510.09,29114,21.44,74432.3,11.69,6.47,6.39,0,*44
1534417511.36,29115,21.44,74434.0,11.71,6.51,6.51,0,*45
1534417512.55,29116,21.44,74434.5,11.69,6.25,6.25,0,*4F
1534417513.79,29117,21.5,74438.3,11.69,6.39,6.39,0,*4E
1534417515.06,29118,21.44,74434.0,11.67,6.43,6.35,0,*4E
1534417516.29,29119,21.44,74432.5,11.67,5.77,5.67,0,*4F
1534417517.52,29120,21.5,74436.8,11.65,5.93,5.85,0,*41
1534417518.72,29121,21.5,74438.8,11.65,6.33,6.33,0,*47
1534417519.94,29122,21.44,74432.3,11.65,6.69,6.61,0,*4C
1534417521.17,29123,21.44,74432.8,11.65,6.43,6.39,0,*48
1534417522.44,29124,21.44,74432.3,11.67,6.43,6.43,0,*40
1534417523.71,29125,21.44,74434.5,11.67,6.35,6.35,0,*41
1534417524.94,29126,21.44,74438.8,11.65,6.65,6.69,0,*4C
1534417526.13,29127,21.44,74436.3,11.65,6.97,6.97,0,*41
1534417527.38,29128,21.44,74436.5,11.67,6.73,6.73,0,*4C
1534417528.64,29129,21.44,74438.3,11.67,6.65,6.69,0,*41
1534417529.85,29130,21.44,74436.3,11.67,6.83,6.83,0,*45
1534417531.08,29131,21.44,74434.5,11.67,6.83,6.91,0,*47
1534417532.28,29132,21.44,74436.5,11.67,6.79,6.79,0,*47
1534417533.54,29133,21.44,74436.8,11.67,6.47,6.53,0,*43
1534417534.81,29134,21.44,74434.0,11.67,6.47,6.43,0,*45
1534417536.05,29135,21.44,74434.0,11.67,6.13,6.33,0,*42
1534417537.3,29136,21.44,74432.5,11.67,5.77,5.85,0,*4E
1534417538.53,29137,21.44,74432.3,11.65,5.73,5.81,0,*4D
1534417539.74,29138,21.44,74434.0,11.67,5.63,5.63,0,*4D
1534417540.95,29139,21.44,74436.3,11.65,5.73,5.71,0,*4C
1534417542.13,29140,21.44,74438.3,11.65,6.11,6.11,0,*40
1534417543.33,29141,21.44,74438.3,11.65,6.69,6.79,0,*40
1534417544.53,29142,21.44,74434.0,11.65,6.69,6.75,0,*4F
1534417545.74,29143,21.5,74438.0,11.65,6.79,6.87,0,*42
1534417546.95,29144,21.44,74434.3,11.65,6.87,6.97,0,*45
1534417548.16,29145,21.44,74434.0,11.65,6.79,6.87,0,*44
1534417549.4,29146,21.44,74434.5,11.67,6.33,6.35,0,*42
1534417550.63,29147,21.44,74434.8,11.67,6.73,6.83,0,*4A
1534417551.84,29148,21.5,74436.5,11.65,6.75,6.87,0,*45
1534417553.05,29149,21.5,74436.8,11.65,6.61,6.75,0,*4C
1534417554.26,29150,21.44,74434.8,11.65,6.29,6.39,0,*40
1534417555.47,29151,21.44,74436.5,11.65,6.33,6.43,0,*47
1534417556.69,29152,21.44,74434.8,11.65,6.29,6.39,0,*42
1534417557.87,29153,21.5,74436.5,11.65,5.99,6.07,0,*46
1534417559.05,29154,21.44,74438.0,11.65,6.11,6.21,0,*46
1534417560.29,29155,21.44,74438.0,11.63,6.39,6.51,0,*4C
1534417561.53,29156,21.44,74438.0,11.65,6.51,6.65,0,*40
1534417562.74,29157,21.44,74434.3,11.63,6.65,6.79,0,*4D
1534417563.97,29158,21.5,74438.5,11.61,6.57,6.79,0,*41
1534417565.2,29159,21.44,74432.8,11.63,6.43,6.65,0,*4A
1534417566.47,29160,21.5,74438.8,11.61,6.17,6.35,0,*46
1534417567.7,29161,21.5,74436.8,11.63,6.65,6.87,0,*49
1534417568.94,29162,21.44,74434.8,11.63,6.51,6.61,0,*45
1534417570.18,29163,21.44,74434.3,11.63,6.43,6.61,0,*47
1534417571.45,29164,21.44,74432.3,11.61,6.35,6.47,0,*47
1534417572.68,29165,21.44,74436.5,11.63,6.69,6.87,0,*41
1534417573.9,29166,21.44,74434.0,11.63,6.29,6.51,0,*4D
1534417575.11,29167,21.44,74434.8,11.63,6.75,6.87,0,*4E
1534417576.29,29168,21.44,74436.5,11.63,6.97,7.09,0,*4A
1534417577.48,29169,21.44,74436.3,11.63,7.09,7.33,0,*44
1534417578.68,29170,21.44,74438.8,11.63,7.09,7.23,0,*4D
1534417579.89,29171,21.44,74434.5,11.65,7.01,7.11,0,*43
1534417581.07,29172,21.44,74436.5,11.65,7.09,7.09,0,*41
1534417582.25,29173,21.5,74438.5,11.65,7.09,7.09,0,*40
1534417583.45,29174,21.44,74432.8,11.65,6.91,7.01,0,*4F
1534417584.63,29175,21.44,74436.8,11.65,6.97,7.01,0,*48
1534417585.8,29176,21.44,74434.8,11.65,7.01,7.09,0,*4D
1534417587.06,29177,21.5,74438.5,11.67,7.11,7.11,0,*46
1534417588.23,29178,21.44,74438.0,11.65,7.01,7.09,0,*43
1534417589.44,29179,21.44,74432.3,11.67,6.83,6.83,0,*48
1534417590.62,29180,21.44,74436.3,11.65,6.97,7.09,0,*4A
1534417591.88,29181,21.5,74436.5,11.67,7.11,7.11,0,*4F
1534417593.14,29182,21.44,74434.8,11.67,6.91,6.91,0,*4C
1534417594.37,29183,21.44,74434.5,11.67,7.23,7.33,0,*4C
1534417595.56,29184,21.44,74434.8,11.69,7.41,7.51,0,*45
1534417596.75,29185,21.44,74434.0,11.69,7.41,7.51,0,*44
1534417597.93,29186,21.5,74438.0,11.69,7.41,7.37,0,*47
1534417599.16,29187,21.44,74436.8,11.69,7.47,7.47,0,*47
1534417600.37,29188,21.44,74438.0,11.71,7.51,7.55,0,*45
1534417601.61,29189,21.44,74436.5,11.71,7.51,7.47,0,*47
1534417602.85,29190,21.44,74436.3,11.71,7.27,7.29,0,*46
1534417604.05,29191,21.44,74436.3,11.73,7.29,7.29,0,*4B
1534417605.23,29192,21.5,74436.3,11.73,7.29,7.33,0,*43
1534417606.47,29193,21.44,74432.8,11.73,7.23,7.23,0,*49
1534417607.65,29194,21.44,74436.5,11.73,7.33,7.41,0,*4B
1534417608.88,29195,21.44,74438.0,11.73,7.23,7.23,0,*4F
1534417610.14,29196,21.44,74436.5,11.75,7.23,7.27,0,*4E
1534417611.4,29197,21.44,74436.3,11.75,7.15,7.27,0,*4A
1534417612.6,29198,21.44,74438.8,11.73,6.91,7.01,0,*4A
1534417613.84,29199,21.44,74436.5,11.73,7.11,7.19,0,*4B
1534417615.05,29200,21.44,74432.3,11.73,7.23,7.29,0,*4A
1534417616.29,29201,21.44,74434.5,11.75,7.27,7.37,0,*46
1534417617.53,29202,21.44,74434.3,11.79,7.51,7.61,0,*4B
1534417618.8,29203,21.44,74432.0,11.79,7.47,7.61,0,*4D
1534417620.0,29204,21.44,74434.5,11.81,7.41,7.47,0,*4F
1534417621.24,29205,21.44,74436.3,11.81,7.47,7.61,0,*4C
1534417622.47,29206,21.44,74434.5,11.81,7.47,7.61,0,*4F
1534417623.66,29207,21.44,74434.5,11.81,7.41,7.51,0,*4B
1534417624.84,29208,21.44,74436.3,11.81,7.51,7.51,0,*45
1534417626.04,29209,21.44,74436.3,11.81,7.41,7.47,0,*42
1534417627.25,29210,21.44,74432.8,11.81,7.09,7.15,0,*41
1534417628.5,29211,21.44,74436.3,11.87,7.15,7.23,0,*4E
1534417629.73,29212,21.44,74434.5,11.81,7.15,7.27,0,*4F
1534417630.91,29213,21.44,74432.8,11.81,7.05,7.05,0,*4F
1534417632.14,29214,21.44,74432.5,11.81,7.15,7.15,0,*48
1534417633.37,29215,21.44,74434.5,11.81,7.15,7.19,0,*45
1534417634.6,29216,21.44,74434.0,11.85,6.61,6.61,0,*4E
1534417635.8,29217,21.44,74432.8,11.85,6.83,6.73,0,*40
1534417636.98,29218,21.44,74434.3,11.85,6.75,6.83,0,*49
1534417638.15,29219,21.44,74438.8,11.81,6.83,6.79,0,*40
1534417639.33,29220,21.44,74432.8,11.81,7.09,7.09,0,*4F
1534417640.57,29221,21.44,74434.5,11.81,7.27,7.19,0,*43
1534417641.75,29222,21.44,74436.8,11.81,7.05,7.05,0,*4D
1534417642.93,29223,21.44,74434.5,11.81,6.97,6.97,0,*4C
1534417644.11,29224,21.44,74434.3,11.81,6.83,6.79,0,*4E
1534417645.32,29225,21.44,74432.5,11.81,6.97,6.87,0,*4B
1534417646.58,29226,21.44,74434.3,11.79,7.19,7.19,0,*4E
1534417647.84,29227,21.44,74434.8,11.79,7.19,7.15,0,*43
1534417649.08,29228,21.44,74432.5,11.79,7.37,7.27,0,*41
1534417650.31,29229,21.44,74434.0,11.81,7.27,7.15,0,*47
1534417651.49,29230,21.44,74434.5,11.81,6.97,6.93,0,*4A
1534417652.68,29231,21.44,74434.3,11.81,6.97,6.97,0,*4F
1534417653.94,29232,21.44,74432.0,11.79,6.73,6.69,0,*40
1534417655.2,29233,21.44,74438.5,11.79,6.73,6.61,0,*49
1534417656.4,29234,21.44,74438.5,11.81,7.15,7.09,0,*47
1534417657.61,29235,21.44,74434.5,11.81,7.61,7.59,0,*40
1534417658.87,29236,21.44,74438.0,11.79,7.19,7.15,0,*43
1534417660.05,29237,21.44,74432.8,11.81,7.05,7.09,0,*45
1534417661.23,29238,21.44,74434.8,11.81,6.83,6.83,0,*46
1534417662.44,29239,21.5,74436.5,11.79,6.97,6.93,0,*44
1534417663.7,29240,21.44,74434.0,11.79,6.73,6.69,0,*45
1534417664.92,29241,21.44,74434.8,11.79,7.05,6.97,0,*45
1534417666.15,29242,21.44,74436.5,11.79,7.09,7.15,0,*41
1534417667.38,29243,21.44,74438.0,11.79,7.29,7.29,0,*4D
1534417668.64,29244,21.44,74434.8,11.79,7.19,7.19,0,*4A
1534417669.87,29245,21.44,74432.3,11.81,7.19,7.27,0,*41
1534417671.07,29246,21.44,74434.5,11.79,7.41,7.41,0,*48
1534417672.26,29247,21.44,74432.5,11.81,6.97,6.97,0,*4E
1534417673.5,29248,21.44,74434.8,11.79,6.73,6.79,0,*4C
1534417674.67,29249,21.44,74432.8,11.81,6.79,6.79,0,*40
1534417675.88,29250,21.44,74438.0,11.79,7.05,7.09,0,*43
1534417677.1,29251,21.44,74434.5,11.79,6.97,6.93,0,*4A
1534417678.35,29252,21.44,74438.3,11.75,6.69,6.69,0,*41
1534417679.61,29253,21.44,74432.3,11.75,7.15,7.15,0,*40
1534417680.86,29254,21.44,74434.3,11.75,6.65,6.53,0,*42
1534417682.12,29255,21.44,74436.5,11.75,6.57,6.53,0,*42
1534417683.32,29256,21.44,74434.0,11.75,6.79,6.75,0,*49
1534417684.59,29257,21.44,74432.8,11.75,6.47,6.47,0,*44
1534417685.8,29258,21.44,74436.8,11.79,6.83,6.83,0,*47
1534417687.03,29259,21.44,74436.3,11.73,7.11,7.11,0,*4C
1534417688.24,29260,21.44,74436.3,11.73,7.09,7.19,0,*47
1534417689.44,29261,21.44,74436.0,11.75,7.37,7.33,0,*45
1534417690.65,29262,21.44,74438.0,11.75,7.33,7.37,0,*46
1534417691.88,29263,21.44,74436.3,11.75,7.61,7.59,0,*48
1534417693.14,29264,21.44,74436.5,11.75,7.47,7.47,0,*44
1534417694.35,29265,21.44,74434.3,11.81,7.27,7.29,0,*40
1534417695.56,29266,21.44,74432.3,11.79,7.37,7.41,0,*4B
1534417696.78,29267,21.44,74438.3,11.79,7.29,7.29,0,*4B
1534417698.04,29268,21.44,74438.3,11.79,7.15,7.15,0,*44
1534417699.28,29269,21.44,74436.5,11.79,7.09,7.15,0,*48
1534417700.51,29270,21.44,74438.3,11.81,7.19,7.27,0,*47
1534417701.72,29271,21.44,74432.0,11.81,7.19,7.37,0,*47
1534417702.93,29272,21.44,74434.0,11.81,7.09,7.19,0,*49
1534417704.11,29273,21.44,74436.5,11.81,7.51,7.59,0,*41
1534417705.29,29274,21.44,74436.5,11.81,7.41,7.51,0,*4F
1534417706.55,29275,21.44,74436.5,11.87,7.69,7.77,0,*46
1534417707.73,29276,21.44,74438.0,11.85,7.33,7.33,0,*48
1534417708.94,29277,21.44,74436.3,11.85,7.23,7.29,0,*43
1534417710.17,29278,21.44,74434.8,11.87,7.23,7.33,0,*45
1534417711.4,29279,21.44,74438.3,11.87,7.27,7.33,0,*40
1534417712.64,29280,21.44,74434.8,11.85,7.61,7.65,0,*45
1534417713.9,29281,21.44,74434.3,11.87,7.69,7.73,0,*49
1534417715.16,29282,21.44,74436.0,11.87,7.65,7.69,0,*4D
1534417716.39,29283,21.44,74436.5,11.89,7.69,7.69,0,*4E
1534417717.59,29284,21.44,74440.0,11.89,7.47,7.55,0,*4A
1534417718.8,29285,21.44,74438.0,11.89,7.59,7.73,0,*40
1534417720.03,29286,21.44,74436.3,11.91,7.79,7.91,0,*44
1534417721.23,29287,21.44,74440.8,11.91,8.05,8.09,0,*4F
1534417722.43,29288,21.44,74436.5,11.91,8.05,8.15,0,*4D
1534417723.63,29289,21.44,74436.0,11.93,7.87,7.97,0,*4E
1534417724.86,29290,21.44,74436.3,11.93,7.73,7.73,0,*47
1534417726.07,29291,21.44,74436.0,11.95,7.51,7.55,0,*44
1534417727.28,29292,21.44,74438.3,11.95,7.41,7.45,0,*47
1534417728.48,29293,21.44,74432.5,11.95,7.41,7.45,0,*46